Randolph AFB, TX

12:38 PM CDT on July 27, 2017 (GMT -0500)
Randolph Air Force Base

Weather History for KRND - October, 2012

Change the Weather History Date:

Tuesday, October 23, 2012

  Actual Average Record
Temperature  
Mean Temperature 77 °F -  
Max Temperature 86 °F 77 °F 87 °F (2003)
Min Temperature 69 °F 58 °F 33 °F (1996)
Cooling Degree Days 12    
Growing Degree Days 27 (Base 50)    
Moisture  
Dew Point 71 °F    
Average Humidity 89    
Maximum Humidity 100    
Minimum Humidity 59    
Precipitation  
Precipitation 0.00 in - - ()
Sea Level Pressure  
Sea Level Pressure 29.93 in    
Wind  
Wind Speed 8 mph (SSE)    
Max Wind Speed 12 mph    
Max Gust Speed -    
Visibility 10 miles    
Events Rain    
Averages and records for this station are not official NWS values.
T = Trace of Precipitation, MM = Missing Value Source: NWS Daily Summary

Daily Weather History Graph

Daily Weather History Graph

Search for Another Location

Airport or City:

Trip Planner

Search our weather history database for the weather conditions in past years. The results will help you decide how hot, cold, wet, or windy it might be!

Date:

Astronomy

Oct. 23, 2012 Rise Set
Actual Time 7:40 AM CDT 6:54 PM CDT
Civil Twilight 7:16 AM CDT 7:18 PM CDT
Nautical Twilight 6:48 AM CDT 7:46 PM CDT
Astronomical Twilight 6:20 AM CDT 8:13 PM CDT
Moon 3:15 PM CDT (10/23) 2:00 AM CDT (10/23)
Length of Visible Light 12h 02m
Length of Day
11h 13m
Waxing Gibbous, 67% of the Moon is Illuminated
Oct 23
Waxing Gibbous
Oct 29
Full
Nov 6
Last Quarter
Nov 13
New
Nov 20
First Quarter

Hourly Weather History & Observations

Time (CDT) Temp. Heat Index Dew Point Humidity Pressure Visibility Wind Dir Wind Speed Gust Speed Precip Events Conditions
12:15 AM 71.6 °F - 69.8 °F 94% 29.94 in 10.0 mi SSE 8.1 mph - N/A   Mostly Cloudy
12:23 AM 71.6 °F - 69.8 °F 94% 29.94 in 10.0 mi South 8.1 mph - N/A   Overcast
12:55 AM 72.1 °F - 70.7 °F 95% 29.93 in 10.0 mi South 8.1 mph - N/A   Mostly Cloudy
1:22 AM 71.6 °F - 71.6 °F 100% 29.93 in 10.0 mi SSE 8.1 mph - N/A   Overcast
1:27 AM 71.6 °F - 71.6 °F 100% 29.93 in 10.0 mi SSE 8.1 mph - N/A   Overcast
1:28 AM 71.6 °F - 71.6 °F 100% 29.93 in 10.0 mi SSE 8.1 mph - N/A   Overcast
1:30 AM 71.6 °F - 71.6 °F 100% 29.93 in 10.0 mi South 6.9 mph - N/A   Overcast
1:39 AM 71.6 °F - 71.6 °F 100% 29.93 in 10.0 mi South 8.1 mph - N/A   Overcast
1:51 AM 71.6 °F - 71.6 °F 100% 29.93 in 10.0 mi SSE 9.2 mph - N/A   Overcast
1:55 AM 72.3 °F - 71.1 °F 96% 29.92 in 10.0 mi SSE 8.1 mph - N/A   Overcast
2:02 AM 71.6 °F - 71.6 °F 100% 29.92 in 10.0 mi SSE 9.2 mph - N/A   Overcast
2:08 AM 71.6 °F - 71.6 °F 100% 29.92 in 10.0 mi SSE 9.2 mph - N/A   Overcast
2:55 AM 72.3 °F - 71.1 °F 96% 29.92 in 10.0 mi SSE 9.2 mph - N/A   Overcast
3:18 AM 71.6 °F - 71.6 °F 100% 29.92 in 10.0 mi SSE 6.9 mph - N/A   Overcast
3:39 AM 71.6 °F - 71.6 °F 100% 29.92 in 10.0 mi South 9.2 mph - N/A   Overcast
3:55 AM 71.6 °F - 70.9 °F 98% 29.92 in 10.0 mi South 6.9 mph - N/A   Mostly Cloudy
4:00 AM 71.6 °F - 71.6 °F 100% 29.92 in 10.0 mi South 5.8 mph - N/A   Mostly Cloudy
4:06 AM 71.6 °F - 71.6 °F 100% 29.92 in 10.0 mi South 6.9 mph - N/A   Mostly Cloudy
4:15 AM 71.6 °F - 71.6 °F 100% 29.92 in 10.0 mi South 6.9 mph - N/A   Mostly Cloudy
4:28 AM 71.6 °F - 71.6 °F 100% 29.91 in 10.0 mi South 4.6 mph - N/A   Mostly Cloudy
4:55 AM 71.2 °F - 70.9 °F 99% 29.91 in 10.0 mi South 4.6 mph - N/A   Overcast
5:01 AM 71.6 °F - 71.6 °F 100% 29.92 in 10.0 mi South 5.8 mph - N/A   Overcast
5:03 AM 71.6 °F - 71.6 °F 100% 29.92 in 10.0 mi South 6.9 mph - N/A   Overcast
5:09 AM 71.6 °F - 71.6 °F 100% 29.92 in 10.0 mi South 4.6 mph - N/A   Overcast
5:14 AM 71.6 °F - 71.6 °F 100% 29.92 in 10.0 mi South 5.8 mph - N/A   Overcast
5:22 AM 71.6 °F - 71.6 °F 100% 29.91 in 10.0 mi South 5.8 mph - N/A   Overcast
5:24 AM 71.6 °F - 71.6 °F 100% 29.92 in 10.0 mi South 5.8 mph - N/A   Overcast
5:55 AM 70.9 °F - 70.5 °F 99% 29.93 in 10.0 mi South 4.6 mph - N/A   Overcast
6:44 AM 69.8 °F - 69.8 °F 100% 29.93 in 10.0 mi South 4.6 mph - N/A   Overcast
6:55 AM 70.3 °F - 70.0 °F 99% 29.93 in 10.0 mi SSE 4.6 mph - N/A   Overcast
7:07 AM 69.8 °F - 69.8 °F 100% 29.94 in 10.0 mi SSE 5.8 mph - N/A   Overcast
7:13 AM 69.8 °F - 69.8 °F 100% 29.94 in 10.0 mi SSE 4.6 mph - N/A   Overcast
7:49 AM 69.8 °F - 69.8 °F 100% 29.94 in 10.0 mi SSE 3.5 mph - N/A Rain Light Rain
7:51 AM 69.8 °F - 69.8 °F 100% 29.94 in 10.0 mi SSE 3.5 mph - N/A Rain Light Rain
7:55 AM 69.8 °F - 69.8 °F 100% 29.94 in 10.0 mi SSE 3.5 mph - 0.00 in Rain Light Rain
7:58 AM 69.8 °F - 69.8 °F 100% 29.94 in 10.0 mi SSE 3.5 mph - N/A   Overcast
8:55 AM 71.1 °F - 70.9 °F 99% 29.97 in 10.0 mi SSE 3.5 mph - N/A   Mostly Cloudy
9:13 AM 71.6 °F - 71.6 °F 100% 29.97 in 10.0 mi SSE 4.6 mph - N/A   Overcast
9:16 AM 71.6 °F - 71.6 °F 100% 29.97 in 10.0 mi SSE 4.6 mph - N/A   Overcast
9:55 AM 73.4 °F - 71.4 °F 93% 29.97 in 10.0 mi SSE 5.8 mph - N/A   Overcast
10:29 AM 75.2 °F - 71.6 °F 89% 29.97 in 10.0 mi SSE 6.9 mph - N/A   Overcast
10:31 AM 75.2 °F - 71.6 °F 89% 29.97 in 10.0 mi SSE 8.1 mph - N/A   Overcast
10:33 AM 75.2 °F - 71.6 °F 89% 29.97 in 10.0 mi SSE 8.1 mph - N/A   Overcast
10:55 AM 76.3 °F - 71.4 °F 85% 29.96 in 10.0 mi SSE 10.4 mph - N/A   Overcast
11:15 AM 77.0 °F - 71.6 °F 83% 29.96 in 10.0 mi South 10.4 mph - N/A   Overcast
11:44 AM 77.0 °F - 71.6 °F 83% 29.96 in 10.0 mi South 11.5 mph - N/A   Overcast
11:45 AM 78.8 °F - 71.6 °F 78% 29.96 in 10.0 mi South 10.4 mph - N/A   Overcast
11:50 AM 78.8 °F - 71.6 °F 78% 29.96 in 10.0 mi South 11.5 mph - N/A   Overcast
11:55 AM 78.1 °F - 71.1 °F 79% 29.96 in 10.0 mi South 10.4 mph - N/A   Overcast
12:03 PM 78.8 °F - 69.8 °F 74% 29.96 in 10.0 mi South 8.1 mph - N/A   Overcast
12:30 PM 78.8 °F - 69.8 °F 74% 29.95 in 10.0 mi South 10.4 mph - N/A   Overcast
12:32 PM 78.8 °F - 69.8 °F 74% 29.95 in 10.0 mi South 9.2 mph - N/A   Overcast
12:36 PM 80.6 °F 83.9 °F 69.8 °F 70% 29.95 in 10.0 mi South 10.4 mph - N/A   Overcast
12:39 PM 80.6 °F 83.9 °F 69.8 °F 70% 29.95 in 10.0 mi South 9.2 mph - N/A   Overcast
12:42 PM 80.6 °F 83.9 °F 69.8 °F 70% 29.95 in 10.0 mi South 9.2 mph - N/A   Overcast
12:45 PM 80.6 °F 83.9 °F 69.8 °F 70% 29.95 in 10.0 mi South 10.4 mph - N/A   Overcast
12:55 PM 80.4 °F 83.9 °F 70.7 °F 72% 29.95 in 10.0 mi SSW 9.2 mph - N/A   Overcast
1:55 PM 82.6 °F 86.1 °F 69.4 °F 64% 29.92 in 10.0 mi South 10.4 mph - N/A   Mostly Cloudy
2:55 PM 83.3 °F 86.9 °F 69.3 °F 62% 29.89 in 10.0 mi Variable 3.5 mph - N/A   Mostly Cloudy
3:55 PM 84.4 °F 88.2 °F 69.1 °F 60% 29.89 in 10.0 mi SSE 10.4 mph - N/A   Mostly Cloudy
4:55 PM 85.3 °F 89.4 °F 69.6 °F 59% 29.88 in 10.0 mi SE 10.4 mph - N/A   Scattered Clouds
5:55 PM 83.7 °F 87.2 °F 69.1 °F 61% 29.88 in 10.0 mi SE 9.2 mph - N/A   Clear
6:55 PM 78.6 °F - 68.7 °F 72% 29.89 in 10.0 mi SE 8.1 mph - N/A   Partly Cloudy
7:55 PM 78.1 °F - 68.2 °F 71% 29.91 in 10.0 mi SE 9.2 mph - N/A   Mostly Cloudy
8:55 PM 76.1 °F - 68.2 °F 76% 29.93 in 10.0 mi SSE 11.5 mph - N/A   Partly Cloudy
9:55 PM 73.9 °F - 68.2 °F 82% 29.95 in 10.0 mi SSE 9.2 mph - N/A   Clear
10:55 PM 72.5 °F - 68.2 °F 86% 29.95 in 10.0 mi SSE 10.4 mph - N/A   Clear
11:55 PM 70.9 °F - 68.5 °F 92% 29.95 in 10.0 mi South 6.9 mph - N/A   Clear